Danbury, CT

3:28 AM EST on February 26, 2017 (GMT -0500)
Danbury Municipal

Weather History for KDXR - June, 2014

Change the Weather History Date:

Monday, June 9, 2014

  Actual Average Record
Temperature  
Mean Temperature 62 °F -  
Max Temperature 64 °F 80 °F 93 °F (1984)
Min Temperature 60 °F 55 °F 38 °F (1980)
Degree Days  
Heating Degree Days 3    
Growing Degree Days 12 (Base 50)    
Moisture  
Dew Point 59 °F    
Average Humidity 92    
Maximum Humidity 100    
Minimum Humidity 81    
Precipitation  
Precipitation 0.28 in - - ()
Sea Level Pressure  
Sea Level Pressure 29.98 in    
Wind  
Wind Speed 3 mph (East)    
Max Wind Speed 7 mph    
Max Gust Speed -    
Visibility 4 miles    
Events Fog , Rain    
Averages and records for this station are not official NWS values.
T = Trace of Precipitation, MM = Missing Value Source: NWS Daily Summary

Daily Weather History Graph

Daily Weather History Graph

Search for Another Location

Airport or City:

Trip Planner

Search our weather history database for the weather conditions in past years. The results will help you decide how hot, cold, wet, or windy it might be!

Date:

Astronomy

Jun. 09, 2014 Rise Set
Actual Time 5:20 AM EDT 8:26 PM EDT
Civil Twilight 4:46 AM EDT 8:59 PM EDT
Nautical Twilight 4:03 AM EDT 9:42 PM EDT
Astronomical Twilight 3:12 AM EDT 10:34 PM EDT
Moon 4:42 PM EDT (6/9) 2:48 AM EDT (6/9)
Length of Visible Light 16h 13m
Length of Day
15h 05m
Waxing Gibbous, 85% of the Moon is Illuminated
Jun 9
Waxing Gibbous
Jun 13
Full
Jun 19
Last Quarter
Jun 27
New
Jul 5
First Quarter

Hourly Weather History & Observations

Time (EDT) Temp. Dew Point Humidity Pressure Visibility Wind Dir Wind Speed Gust Speed Precip Events Conditions
12:53 AM 61.0 °F 55.0 °F 81% 29.92 in 10.0 mi SW 3.5 mph - N/A   Clear
1:53 AM 61.0 °F 55.0 °F 81% 29.92 in 10.0 mi Calm Calm - N/A   Clear
2:53 AM 61.0 °F 57.0 °F 87% 29.93 in 10.0 mi Calm Calm - N/A   Clear
3:53 AM 61.0 °F 57.0 °F 87% 29.93 in 10.0 mi Calm Calm - N/A   Overcast
4:53 AM 63.0 °F 57.9 °F 84% 29.94 in 10.0 mi Calm Calm - 0.00 in   Overcast
5:53 AM 61.0 °F 59.0 °F 93% 29.97 in 4.0 mi Calm Calm - 0.02 in Rain Light Rain
6:24 AM 61.0 °F 59.0 °F 93% 29.99 in 1.8 mi Calm Calm - 0.03 in Rain Rain
6:36 AM 61.0 °F 59.0 °F 93% 29.99 in 3.0 mi Calm Calm - 0.04 in Rain Light Rain
6:53 AM 61.0 °F 60.1 °F 97% 29.98 in 3.0 mi South 3.5 mph - 0.06 in Rain Rain
7:53 AM 62.1 °F 59.0 °F 90% 29.97 in 10.0 mi ESE 3.5 mph - 0.06 in   Overcast
8:53 AM 63.0 °F 57.9 °F 84% 29.97 in 10.0 mi Calm Calm - 0.05 in   Overcast
9:53 AM 64.0 °F 59.0 °F 84% 29.97 in 10.0 mi Variable 3.5 mph - N/A   Overcast
11:44 AM 63.0 °F 59.0 °F 87% 29.99 in 8.0 mi Calm Calm - 0.01 in Rain Light Rain
11:53 AM 62.1 °F 59.0 °F 90% 29.98 in 4.0 mi Calm Calm - 0.02 in Rain Light Rain
12:29 PM 62.1 °F 60.1 °F 93% 29.99 in 3.0 mi ENE 4.6 mph - 0.02 in Rain Light Rain
12:53 PM 63.0 °F 60.1 °F 90% 29.99 in 9.0 mi East 4.6 mph - 0.04 in   Overcast
2:31 PM 63.0 °F 60.1 °F 90% 29.99 in 1.2 mi SE 4.6 mph - N/A   Overcast
2:39 PM 62.1 °F 60.1 °F 93% 29.99 in 1.0 mi SE 3.5 mph - N/A   Overcast
2:53 PM 63.0 °F 60.1 °F 90% 29.99 in 1.5 mi East 5.8 mph - 0.00 in Rain Light Rain
3:53 PM 62.1 °F 60.1 °F 93% 29.98 in 1.2 mi East 5.8 mph - 0.02 in Rain Light Rain
4:17 PM 62.1 °F 60.1 °F 93% 29.98 in 3.0 mi East 6.9 mph - 0.00 in   Overcast
4:53 PM 62.1 °F 60.1 °F 93% 29.99 in 4.0 mi East 6.9 mph - 0.01 in Rain Light Rain
5:53 PM 63.0 °F 60.1 °F 90% 29.98 in 6.0 mi ENE 4.6 mph - 0.00 in   Overcast
6:53 PM 62.1 °F 60.1 °F 93% 29.99 in 6.0 mi ENE 5.8 mph - N/A   Overcast
7:20 PM 61.0 °F 60.1 °F 97% 30.00 in 1.8 mi East 6.9 mph - N/A   Overcast
7:39 PM 61.0 °F 59.0 °F 93% 29.99 in 2.5 mi East 5.8 mph - N/A   Overcast
7:50 PM 60.8 °F 59.0 °F 94% 29.99 in 4.0 mi ENE 5.8 mph - N/A   Overcast
7:53 PM 61.0 °F 59.0 °F 93% 29.99 in 4.0 mi ENE 4.6 mph - N/A   Overcast
8:16 PM 61.0 °F 59.0 °F 93% 30.00 in 4.0 mi East 4.6 mph - N/A   Overcast
8:38 PM 61.0 °F 60.1 °F 97% 30.00 in 3.0 mi East 5.8 mph - N/A   Overcast
8:53 PM 61.0 °F 60.1 °F 97% 29.99 in 2.5 mi ENE 4.6 mph - N/A   Overcast
9:11 PM 61.0 °F 60.1 °F 97% 30.00 in 1.5 mi ENE 3.5 mph - N/A   Overcast
9:35 PM 61.0 °F 60.1 °F 97% 30.00 in 1.5 mi East 3.5 mph - N/A   Overcast
9:53 PM 61.0 °F 60.1 °F 97% 30.00 in 1.2 mi ENE 3.5 mph - N/A   Overcast
10:15 PM 60.1 °F 60.1 °F 100% 29.99 in 0.8 mi ENE 4.6 mph - N/A   Mist
10:53 PM 60.1 °F 60.1 °F 100% 29.99 in 1.0 mi East 4.6 mph - N/A   Mist
11:06 PM 60.1 °F 60.1 °F 100% 30.00 in 0.5 mi East 3.5 mph - N/A Fog Fog
11:53 PM 60.1 °F 60.1 °F 100% 29.99 in 0.5 mi NE 3.5 mph - N/A Fog Fog